Volver al catálogo

FENGYUN 1C DEB

ActivoSSO
NORAD 30996·DEBRIS·🇨🇳 China

Lanzado May 10, 1999 desde Taiyuan Satellite Launch Center

Loading…

Próximos Pases (próximas 24 horas)

TLE

ActualizadoSource: Space-Track

Época: Sep 13, 2026, 17:31 UTC

1 30996U 99025BCN 26256.73047392  .00001215  00000-0  42427-3 0  9999
2 30996  98.9342 176.8577 0048324 201.9799 221.6190 14.36533207 15082

Sigue FENGYUN 1C DEB en tiempo real con AllMySat

Download on the App Store